Theta_e
328 328 329 329 329 328 328 327 327 328 328 328 329 330 331 330 328 326 325 324 323 321 320 318 317 316 316 316 315 315 316 316 317 317 317 316 317 317 318 318 318 318 318 318 318 318 318 318 318 317 317 318 318 319 319 318 318 318 318 320 321 322 323 324 327 327 326 326 326 326 327 328 329 329 329 330 330 331 331 332 333 334 335 335 334
328 328 329 329 329 329 329 328 328 329 329 329 329 330 331 331 330 327 325 325 324 322 321 319 317 316 316 316 316 316 315 315 316 316 315 315 316 316 317 318 318 317 317 317 317 317 317 317 318 317 318 318 318 319 319 319 318 318 318 319 320 321 322 323 325 326 326 326 326 326 326 326 327 328 329 330 330 330 329 330 332 333 333 332 333
327 327 327 327 327 327 328 329 330 330 330 330 331 331 331 331 331 329 326 325 324 323 321 319 318 317 317 316 316 316 315 316 316 315 315 315 315 315 316 316 317 317 317 317 317 317 317 317 317 318 317 317 318 319 319 319 319 319 320 320 320 321 322 323 324 325 325 325 325 326 327 326 326 326 328 329 329 329 329 329 331 332 332 331 332
327 326 326 327 327 326 327 328 329 330 331 331 331 331 332 332 331 329 326 325 324 323 322 320 318 317 317 316 316 316 315 315 315 315 316 316 315 315 315 315 316 316 316 316 316 317 317 317 317 317 317 317 318 318 319 320 320 321 322 322 322 322 322 323 323 324 325 325 325 326 326 326 326 326 327 328 328 329 329 329 329 330 331 331 332
327 326 326 325 325 325 326 326 327 328 330 331 332 332 332 332 331 329 326 325 323 322 322 321 319 318 317 316 316 316 316 315 315 316 316 315 315 315 315 315 315 315 315 315 316 316 317 316 317 316 316 317 317 318 320 321 320 321 321 322 322 322 322 322 323 323 324 325 325 325 325 325 326 326 326 327 328 329 329 328 327 328 329 330 330
326 325 324 324 324 324 325 325 327 327 327 329 332 333 332 331 331 329 326 324 323 322 322 321 320 318 317 316 315 315 316 315 315 316 315 315 315 314 314 314 314 315 315 315 316 316 316 316 316 316 316 316 317 319 320 319 319 319 320 321 321 321 321 322 322 322 323 324 324 325 325 325 325 326 327 327 328 329 329 328 328 328 328 328 329
325 324 323 323 324 325 325 326 327 327 327 328 330 332 331 329 329 327 325 324 323 322 322 321 320 318 317 317 316 315 316 316 315 315 316 315 314 311 310 312 314 314 314 315 315 315 316 316 316 316 316 316 317 318 318 317 317 318 319 320 320 321 321 321 322 322 322 323 323 324 324 325 325 326 327 327 327 328 329 329 329 328 328 327 327
324 323 322 323 324 325 326 326 327 328 328 329 329 330 328 327 326 325 324 323 323 322 322 321 320 319 317 317 316 316 316 316 316 316 316 315 313 311 309 310 312 314 314 314 315 315 316 316 316 315 316 316 317 317 316 315 316 317 318 319 319 319 319 319 320 320 320 321 322 323 323 324 324 325 326 326 326 327 328 327 328 329 329 328 327
324 323 322 322 324 325 325 326 327 327 328 328 328 327 326 325 325 324 323 323 323 323 322 321 321 320 319 318 317 317 317 317 317 317 317 315 314 312 310 309 311 313 314 314 315 315 315 315 315 315 315 316 316 315 315 315 316 316 317 318 318 318 318 318 318 318 318 320 320 321 322 323 324 324 325 325 325 325 326 326 327 328 329 329 329
323 323 322 322 323 324 325 325 325 326 326 326 325 325 325 324 324 323 323 323 322 323 322 322 321 320 320 319 318 317 317 317 317 317 317 316 314 313 311 309 310 312 313 313 314 314 314 314 314 314 315 315 315 315 315 316 316 316 316 317 317 317 317 317 317 318 318 319 319 320 321 322 323 323 324 324 324 324 324 325 326 327 328 329 329
323 323 322 322 322 323 324 324 324 324 324 324 324 324 323 323 323 323 323 323 322 322 322 322 321 321 320 320 318 318 318 318 318 317 317 316 314 313 311 309 309 311 312 312 313 313 313 313 314 314 314 315 316 316 315 315 316 316 317 317 317 317 316 316 317 317 318 319 319 320 321 321 322 322 323 323 323 323 324 324 325 326 327 327 328
322 322 322 321 322 323 323 323 323 323 323 323 323 323 323 322 322 323 323 323 322 322 322 322 321 321 321 320 319 318 318 318 317 317 317 316 314 313 311 309 309 310 311 312 312 312 312 312 313 313 314 315 316 316 316 316 317 317 317 317 317 317 317 317 317 317 317 318 319 319 320 320 321 321 322 323 323 323 323 323 323 324 325 326 327
322 321 322 322 322 322 322 323 322 322 322 322 322 322 322 321 322 321 322 322 322 322 322 322 321 321 321 321 320 319 320 320 319 318 317 315 314 313 311 309 309 310 310 311 311 311 311 312 312 313 313 315 316 316 316 316 316 316 315 316 316 317 317 317 317 318 318 318 318 319 319 319 320 320 321 322 322 322 321 321 320 321 322 323 325
322 322 323 323 322 322 322 322 322 322 321 321 321 321 321 321 321 321 321 321 321 321 321 321 321 321 321 320 320 320 320 321 321 319 317 315 314 314 312 311 309 309 310 310 311 311 312 312 312 313 313 315 315 315 315 315 314 313 313 313 314 315 316 317 317 318 318 318 318 318 318 319 320 320 321 321 321 320 320 319 319 319 319 320 321
322 322 322 323 322 321 321 321 321 322 321 321 321 321 321 321 321 321 321 321 320 321 321 320 321 321 321 320 320 320 320 320 320 319 317 316 315 315 314 312 310 309 310 310 311 312 312 312 312 313 313 314 315 315 315 314 313 312 312 312 312 313 315 317 317 318 318 318 318 318 318 318 319 319 319 320 319 318 319 319 318 318 318 319 320
322 322 322 322 322 322 322 321 321 321 321 321 321 321 321 321 321 321 321 320 320 321 320 321 321 320 320 320 320 320 320 320 320 319 318 317 316 315 314 312 310 310 310 311 312 313 312 312 312 312 313 314 315 314 314 314 312 311 310 310 310 312 314 315 317 317 317 317 318 318 318 317 317 317 317 317 318 318 318 318 317 317 318 320 321
322 322 322 322 322 322 322 321 321 321 321 321 321 321 321 321 321 321 321 321 321 321 320 320 320 320 320 320 320 320 320 320 320 319 318 317 316 315 314 312 311 310 311 311 312 312 312 312 312 312 313 314 314 314 314 313 311 309 310 310 311 311 312 313 314 316 316 318 318 317 317 316 316 316 316 317 318 318 317 317 317 317 318 319 320
322 322 322 322 322 322 322 322 322 322 321 321 321 321 321 321 322 321 321 321 321 321 321 321 321 320 320 319 319 319 319 320 319 319 319 318 316 315 314 312 311 310 310 311 312 312 313 313 313 312 313 313 314 315 314 312 310 308 309 310 311 311 311 312 313 315 316 317 317 316 315 315 316 316 316 317 318 317 317 316 316 317 318 319 319
322 322 322 322 322 322 322 321 321 321 321 321 321 321 321 321 322 322 322 322 322 321 321 321 321 321 320 320 319 319 319 319 319 319 319 318 316 315 314 312 310 309 310 311 312 312 313 313 313 313 313 313 314 314 313 310 309 308 308 309 311 311 312 312 313 313 314 314 314 314 314 314 315 315 315 316 318 318 317 317 316 317 317 318 319
322 322 322 322 323 322 322 321 321 321 321 322 321 321 322 321 321 321 322 322 322 321 321 321 321 321 321 320 320 319 319 319 319 319 319 318 317 316 314 312 309 309 311 311 311 312 312 312 313 314 313 313 313 312 311 309 308 307 307 308 310 311 311 311 311 311 311 312 312 312 313 313 313 313 315 317 318 318 318 317 317 317 317 318 318
322 322 322 322 322 322 322 322 322 322 322 322 322 322 322 322 322 322 322 322 322 322 322 322 322 322 321 321 321 320 320 320 319 320 319 319 318 316 315 313 309 309 310 310 311 312 312 311 313 314 313 312 311 311 310 309 308 307 306 306 307 309 309 309 309 309 309 310 311 311 312 312 312 313 316 318 318 318 318 318 317 317 317 317 318
323 322 322 322 321 322 322 322 322 322 322 322 323 322 322 323 322 322 323 323 323 323 323 323 323 322 322 321 321 321 320 320 320 320 319 319 319 318 317 315 311 308 308 310 312 312 311 311 313 314 313 312 311 310 309 309 308 307 307 306 306 307 308 308 308 308 308 310 311 311 312 312 313 315 317 318 318 318 318 317 317 316 316 317 317
324 323 322 322 322 322 322 322 322 323 323 323 323 324 324 323 323 323 323 323 323 323 323 323 323 323 323 322 322 321 321 320 320 320 320 319 319 318 318 317 314 309 307 309 311 310 310 311 313 313 312 311 311 310 309 309 308 307 306 306 306 306 307 308 307 307 308 310 311 312 313 314 315 316 317 317 317 317 317 317 316 316 316 316 316
324 323 323 322 322 321 322 322 322 323 323 323 323 324 324 325 324 324 323 323 323 323 324 324 323 323 323 322 322 321 321 321 321 320 320 319 319 319 318 318 316 311 306 306 307 308 309 311 311 311 310 310 310 310 309 308 307 306 306 306 307 307 307 307 307 308 309 310 311 312 314 316 316 317 317 317 316 316 316 315 315 315 315 316 315
326 324 323 323 323 322 321 322 322 323 323 323 324 324 325 325 325 325 324 324 323 323 323 323 323 323 322 322 321 321 321 321 321 321 320 320 319 319 318 318 317 313 308 305 305 306 307 308 308 308 309 309 309 308 308 308 308 307 307 307 308 308 307 308 310 311 312 313 313 314 316 316 316 316 316 316 316 315 315 315 314 314 315 315 314
327 326 325 324 323 323 323 322 322 323 323 324 324 325 325 326 325 325 325 324 324 323 323 323 322 322 322 321 321 321 320 320 320 320 320 320 319 319 318 318 317 314 310 306 305 305 305 305 306 306 307 308 308 307 308 309 310 309 308 308 309 309 308 308 311 314 314 315 315 315 315 316 315 315 315 315 314 314 315 315 315 315 315 314 313
329 327 326 325 324 324 324 323 323 323 323 324 324 324 324 325 325 325 324 324 323 322 322 322 321 321 321 321 320 320 320 319 319 320 320 320 319 319 318 317 316 314 311 308 306 306 306 306 305 306 307 308 308 308 309 311 311 310 309 309 309 309 308 309 312 315 315 315 315 315 315 315 315 314 314 314 314 314 315 315 315 316 315 314 313
328 327 326 325 325 324 324 324 324 324 323 324 325 325 325 325 325 324 324 323 322 322 321 321 321 320 320 321 320 320 320 319 319 319 319 320 319 318 317 316 316 315 312 311 309 308 306 306 306 308 310 311 312 311 312 312 312 312 311 310 309 309 310 312 314 315 314 314 315 315 315 315 314 314 313 314 314 314 314 314 314 315 315 314 312
327 327 326 326 326 325 324 325 325 325 324 324 324 325 325 324 324 324 323 323 322 321 321 321 320 320 320 320 319 319 319 320 320 319 318 319 318 317 316 316 315 315 314 313 311 309 308 309 311 312 314 314 314 314 313 313 313 313 312 311 310 310 311 312 313 313 312 313 314 314 314 315 314 314 314 314 314 314 314 314 314 315 315 314 313
325 326 326 326 326 325 325 326 326 325 324 324 324 325 325 324 323 322 322 322 321 320 320 320 320 320 320 319 319 318 319 320 321 319 318 317 317 317 317 316 315 314 314 314 312 310 311 313 314 314 314 313 313 313 313 313 313 312 312 312 311 310 311 311 311 310 309 311 313 314 314 314 314 314 314 314 313 313 313 313 313 314 315 315 313
322 323 325 325 324 323 324 325 326 325 324 323 324 324 324 324 323 322 321 321 320 320 319 319 319 318 317 316 317 317 318 318 318 318 317 317 316 316 316 315 315 314 314 314 313 311 312 312 313 313 313 313 313 313 312 312 312 312 311 311 311 311 311 311 310 309 309 311 313 314 313 313 313 314 314 313 313 312 312 312 312 313 314 314 313
321 322 323 323 323 322 323 323 323 323 323 323 323 323 323 323 323 322 321 320 320 320 319 318 317 315 315 313 313 314 316 317 317 317 317 316 316 316 315 315 314 314 313 312 311 310 311 312 312 313 313 313 313 313 313 313 312 312 311 311 311 310 310 310 310 310 312 313 313 313 313 313 313 313 313 313 312 311 311 312 311 312 313 314 312
323 323 323 323 324 323 323 322 322 321 321 321 322 322 322 322 321 321 320 320 320 320 319 318 316 316 315 315 314 314 315 316 316 317 316 316 316 316 315 315 314 313 312 311 310 309 310 311 312 313 313 313 313 313 313 313 312 311 311 311 311 310 310 309 309 311 313 314 314 314 314 313 313 313 312 312 311 310 309 310 310 310 312 313 312
323 323 323 323 323 323 323 323 322 322 321 321 321 322 322 322 321 320 319 319 319 319 319 318 317 316 316 316 316 315 315 315 316 316 316 316 315 315 315 314 314 313 312 311 310 310 310 312 312 313 313 314 314 314 313 313 312 312 311 311 311 311 310 310 309 310 312 313 314 314 314 313 313 313 311 309 309 308 308 309 309 309 311 311 310
322 321 321 321 321 322 322 321 321 321 321 321 321 321 321 321 320 320 319 319 319 319 319 318 317 317 316 316 316 315 315 315 315 315 316 315 314 314 314 313 313 313 312 312 311 310 311 312 313 313 314 314 314 313 313 313 312 312 311 311 311 310 309 309 308 308 310 313 313 314 313 312 312 311 309 307 306 306 307 307 308 308 310 311 309
321 320 320 320 320 320 320 320 319 319 319 319 319 320 321 321 320 320 319 319 319 319 318 318 317 317 316 317 316 316 316 315 315 315 315 314 313 313 313 312 311 312 312 312 312 312 312 312 312 313 313 314 313 313 313 313 313 312 312 311 310 310 309 308 308 308 310 313 313 313 312 311 309 308 307 306 305 304 304 305 306 306 308 310 309
321 320 319 319 318 318 318 318 318 318 318 318 318 320 320 321 320 319 318 318 318 318 318 317 317 316 316 316 316 316 316 316 316 315 314 313 313 313 312 311 311 312 313 313 313 313 313 312 312 313 313 313 313 313 313 313 313 312 312 310 309 309 309 308 308 309 311 312 312 312 311 309 307 307 307 305 304 304 303 304 304 304 305 308 309
318 319 318 318 317 317 317 318 318 318 317 318 319 320 321 320 320 319 318 318 318 318 317 316 316 316 315 315 315 315 315 315 315 314 313 312 312 312 311 311 311 312 312 313 313 313 313 313 313 313 313 313 313 313 313 313 313 312 311 310 309 309 308 308 308 310 311 312 311 311 310 309 307 306 305 304 304 304 303 303 304 303 304 307 309
317 317 318 317 317 317 317 317 318 317 317 319 319 320 321 321 320 319 319 318 318 318 317 316 315 315 315 314 314 315 315 314 313 313 313 312 311 311 312 311 311 311 311 312 313 313 314 314 313 314 313 313 313 313 312 313 312 311 311 310 309 309 308 308 308 309 310 311 311 311 310 309 307 306 305 304 303 303 303 302 303 303 304 307 308
318 318 318 316 315 315 315 315 316 317 317 318 318 319 320 321 321 319 319 319 318 317 316 316 316 315 314 314 315 315 315 314 313 313 313 312 313 313 312 312 311 311 312 312 313 314 314 313 313 314 314 313 313 313 313 312 312 311 310 310 309 308 308 308 308 308 308 309 309 309 310 309 308 307 306 305 304 303 303 302 302 302 303 305 308
318 317 315 314 314 314 314 314 315 316 317 317 319 319 320 321 321 320 319 319 318 317 317 317 315 314 314 314 315 315 315 315 315 314 314 314 314 314 313 313 312 313 313 313 313 313 313 313 313 314 314 314 313 313 312 312 312 311 311 310 310 309 308 308 308 308 307 307 307 308 309 309 308 308 307 306 304 303 302 302 302 301 301 303 305
315 314 313 313 313 314 314 314 315 316 317 318 319 319 319 321 321 320 319 319 318 317 316 315 314 314 315 315 315 314 314 315 315 314 314 314 314 314 313 313 313 313 313 313 313 313 313 314 314 314 314 314 314 313 312 312 312 312 311 310 310 309 308 307 307 307 307 307 307 307 308 309 309 308 306 305 304 303 302 301 301 301 301 301 303
312 311 309 310 311 312 313 314 314 315 316 318 319 319 319 320 321 321 320 320 319 317 315 314 314 315 316 315 315 315 315 315 314 314 314 314 314 314 314 314 314 313 312 313 313 313 313 314 314 314 314 314 313 313 312 312 311 311 310 310 309 309 308 307 307 307 307 307 306 306 308 309 308 307 306 305 304 303 302 301 301 300 300 300 301
310 308 307 308 309 311 313 314 315 315 316 316 317 318 319 320 321 321 321 320 318 317 316 315 316 316 316 315 315 315 315 314 315 314 314 314 314 313 313 313 313 313 313 313 313 313 314 314 314 314 314 314 314 313 312 312 311 311 310 309 308 308 307 307 307 307 307 306 305 306 307 307 307 306 305 304 304 302 301 301 301 301 300 300 300
307 307 308 309 310 311 312 314 315 316 316 316 317 318 318 320 321 321 320 320 319 318 317 317 317 316 316 316 316 315 315 314 314 314 314 313 313 312 312 312 312 312 312 313 313 313 314 314 314 314 314 314 313 312 312 312 311 311 310 309 307 307 307 307 306 307 307 306 305 305 306 306 306 305 305 304 303 302 301 301 301 301 300 299 300
307 308 309 310 310 310 311 313 314 315 315 315 316 317 317 319 321 320 320 320 319 319 319 319 317 316 316 316 316 315 315 314 314 314 313 312 311 312 312 312 311 312 313 313 313 314 314 314 314 314 314 314 313 312 312 312 312 312 311 310 308 308 308 308 307 306 307 306 305 305 305 306 306 305 305 304 303 302 302 301 301 301 300 299 300
308 308 309 309 310 310 311 312 313 315 315 315 315 316 318 320 320 319 319 319 318 319 320 320 318 317 316 316 315 315 315 314 313 313 312 311 311 311 311 311 311 312 313 313 313 313 313 313 313 313 313 313 313 312 312 311 311 311 311 311 310 310 310 309 308 307 306 306 305 305 305 305 305 305 304 303 303 302 301 301 301 301 300 299 300
308 308 308 309 310 311 312 312 312 313 313 314 314 316 318 319 319 318 319 319 318 318 318 319 318 317 317 316 315 315 314 314 313 313 312 311 311 311 311 311 311 312 312 312 312 312 312 312 312 312 312 312 312 312 312 312 311 311 311 311 311 310 310 310 309 307 306 305 304 305 305 305 305 305 304 302 302 302 302 301 301 301 300 300 300
308 308 309 309 310 310 311 312 312 312 312 313 313 315 316 317 317 317 318 318 318 318 318 318 318 318 317 317 316 315 314 314 313 312 311 311 312 312 311 310 310 311 311 311 311 310 310 310 310 310 311 311 311 312 312 312 312 311 311 311 311 310 310 309 309 308 307 305 304 304 304 305 305 305 304 303 302 302 302 301 301 301 300 300 299
308 309 309 310 310 311 311 311 312 312 312 312 312 313 314 316 316 317 317 317 317 318 318 317 317 317 318 317 317 316 315 314 313 312 312 311 311 310 309 309 309 311 311 311 311 310 310 309 309 309 309 309 310 310 311 311 311 311 311 311 311 310 310 309 308 308 307 306 304 304 304 305 305 305 304 303 303 302 302 302 301 301 300 300 299
309 309 310 310 310 310 310 311 311 311 311 312 312 312 313 314 315 316 316 316 316 316 317 317 318 317 317 317 317 316 316 315 314 313 313 312 310 309 308 309 310 311 311 310 310 309 309 308 308 308 308 308 309 309 310 310 310 310 310 310 311 310 310 309 309 308 308 307 306 305 304 305 305 305 305 304 303 303 302 302 301 301 300 300 300
Wind_Speed
5 6 6 6 6 7 8 8 9 9 9 9 10 10 10 9 8 7 7 8 7 8 10 9 4 4 4 5 7 8 8 8 7 6 6 8 9 9 8 8 9 11 12 12 10 10 10 11 12 16 18 15 11 11 13 14 14 15 14 14 14 14 14 12 6 6 12 14 14 14 12 8 9 10 10 11 13 12 12 14 15 17 20 21 22
6 7 7 7 7 8 8 9 9 10 10 10 11 11 11 10 9 8 8 8 8 9 10 8 5 3 3 4 6 8 8 8 8 7 9 11 11 10 9 8 8 10 12 13 12 11 10 10 12 15 18 17 12 10 12 14 15 16 14 11 13 13 14 13 9 7 11 14 14 14 13 11 9 10 11 13 14 13 14 16 17 18 19 20 21
6 7 8 9 9 9 9 10 10 11 12 12 12 12 12 11 9 9 8 8 9 9 9 8 6 5 5 3 7 10 7 6 8 9 9 11 12 12 11 9 8 8 10 12 13 13 12 12 11 14 18 19 14 11 13 14 14 16 16 12 12 13 13 12 10 8 10 14 15 14 13 13 12 11 10 11 13 13 15 18 19 19 19 21 22
5 8 10 10 10 10 10 10 11 11 13 13 14 14 13 11 10 9 8 8 9 9 10 10 7 6 6 4 8 12 7 4 9 9 7 9 11 13 13 12 10 8 10 11 12 13 14 13 12 13 16 19 17 14 13 14 14 16 17 16 14 14 14 13 12 11 10 12 15 15 14 14 14 13 12 11 13 14 14 16 18 20 19 20 22
7 8 8 7 7 7 8 9 10 11 12 13 14 13 11 11 10 9 8 9 10 10 11 11 7 6 8 8 10 13 9 5 7 7 7 7 9 12 13 13 12 11 11 11 11 12 13 13 12 12 14 18 18 15 12 14 16 17 18 17 16 16 16 15 15 14 12 12 15 16 15 15 14 13 12 11 13 12 11 13 16 18 19 20 21
6 6 6 6 7 7 8 9 8 9 10 10 11 10 10 10 9 8 8 9 10 10 9 10 8 8 11 9 8 10 10 8 7 6 5 4 6 9 11 14 15 13 12 12 11 12 13 13 13 12 13 16 17 14 12 14 15 15 16 17 16 16 16 15 14 14 14 13 15 16 15 15 14 12 12 10 10 10 10 9 10 13 16 18 19
4 6 7 7 6 7 8 7 6 7 7 8 9 9 8 8 7 7 8 9 10 9 9 10 10 11 11 9 9 11 10 11 11 7 3 2 5 7 9 12 15 15 14 12 11 12 13 13 13 12 12 14 15 14 13 15 15 14 14 15 15 15 15 15 14 13 13 13 14 15 15 14 14 12 11 10 8 8 8 8 6 8 10 13 17
6 8 9 8 6 6 7 5 4 5 6 6 7 7 7 7 7 8 9 9 9 9 9 11 12 12 12 10 11 12 9 9 12 10 6 5 7 8 8 10 12 14 15 13 12 13 12 13 13 13 13 13 14 14 16 17 16 16 15 14 13 14 14 14 14 14 13 13 12 14 15 14 14 12 10 10 9 7 8 9 9 9 8 10 14
7 8 9 9 7 6 6 5 4 5 5 5 6 7 7 7 7 7 7 8 8 9 10 11 12 13 14 13 12 11 10 10 12 12 10 9 8 8 9 9 9 13 15 13 13 13 13 13 13 14 14 13 13 15 16 16 16 16 15 13 13 14 14 14 14 14 14 13 12 13 13 13 13 12 11 11 10 10 12 12 11 11 11 10 12
8 8 9 9 8 8 7 6 5 5 6 6 6 7 7 7 7 7 7 8 9 10 10 11 12 13 14 14 11 9 9 11 13 14 14 12 11 10 10 10 9 11 14 14 14 14 14 14 13 13 13 12 13 14 14 15 16 17 15 13 13 14 14 13 13 13 13 12 12 12 11 11 12 12 11 11 11 11 12 13 13 12 11 10 10
8 7 8 9 9 9 8 7 7 7 8 7 7 8 8 9 9 9 9 10 10 11 11 11 13 13 12 15 15 11 10 12 13 15 15 13 12 11 10 10 9 11 13 15 16 16 14 13 13 13 13 12 13 14 15 16 17 14 12 12 13 13 14 15 15 14 13 12 12 12 11 11 13 13 11 10 12 12 11 12 13 13 12 9 7
5 6 8 9 9 9 8 9 9 9 9 10 10 11 11 11 11 12 12 13 13 13 12 12 13 13 12 15 16 14 14 15 16 17 15 13 11 10 9 10 10 11 13 15 17 17 15 14 14 14 13 12 12 13 15 15 13 11 10 13 14 13 14 16 18 18 16 14 13 12 12 12 13 13 12 11 11 11 11 11 12 13 13 11 9
7 8 9 10 9 9 10 10 9 9 10 11 11 11 11 11 11 11 11 12 12 13 13 13 14 13 13 16 17 16 16 15 15 15 14 12 11 10 10 10 10 11 13 15 16 17 15 13 14 15 14 12 11 12 13 13 13 13 13 14 14 15 16 16 17 18 19 18 16 15 14 14 13 14 13 10 9 10 11 12 13 14 13 12 12
10 11 10 10 10 9 9 9 9 10 11 10 9 10 10 11 12 11 11 11 10 12 13 13 14 14 15 16 17 16 16 16 15 13 12 12 12 11 11 11 11 12 14 15 18 20 19 15 13 15 15 14 12 11 12 14 15 16 16 15 15 16 17 18 17 16 16 17 18 19 18 16 15 16 14 10 9 11 12 13 14 15 16 16 18
11 12 12 11 10 9 10 11 10 11 13 12 11 11 12 12 13 13 12 12 12 13 14 14 15 16 17 18 18 16 16 17 16 15 14 14 14 14 13 13 13 13 14 15 18 22 21 15 13 15 16 14 12 12 14 16 16 16 15 16 17 16 16 17 18 18 17 16 17 17 17 16 16 18 17 16 16 17 16 15 16 17 18 18 18
12 12 12 12 11 11 11 11 11 13 14 14 13 14 15 15 16 16 16 16 16 16 16 16 16 16 16 17 17 16 16 17 17 17 17 16 16 15 14 14 13 13 14 15 17 20 20 16 16 16 14 12 12 15 16 15 14 13 14 16 18 17 17 17 17 18 18 18 16 14 13 13 14 16 16 17 20 20 18 17 16 15 14 14 14
13 13 13 13 13 14 14 14 16 17 17 16 16 16 16 16 16 17 18 18 18 19 20 20 19 18 18 17 16 16 16 17 17 17 17 16 16 16 15 13 13 15 15 16 17 18 19 19 17 14 12 13 16 16 15 12 11 12 14 16 17 17 18 18 18 18 17 15 13 11 11 12 14 15 16 16 17 16 15 15 13 10 9 9 9
14 14 15 14 15 15 14 14 14 13 13 14 14 14 13 13 14 15 16 18 18 19 19 18 16 17 18 18 18 19 19 19 18 17 16 16 16 16 15 13 14 16 16 16 17 16 17 19 18 17 17 18 16 14 11 10 11 12 13 15 16 18 19 17 17 16 14 12 11 11 13 14 16 17 18 18 16 13 12 11 10 8 7 8 8
14 15 14 14 14 13 12 13 14 13 12 13 14 14 14 14 15 16 16 16 16 16 16 17 18 20 20 21 23 23 22 20 19 18 17 17 17 17 16 14 15 16 16 16 16 16 16 18 20 20 18 16 13 11 10 10 11 11 12 13 15 17 17 16 17 17 17 16 15 15 15 16 18 20 22 20 16 13 11 10 9 8 8 9 9
15 15 15 16 15 15 16 18 18 16 14 13 13 15 16 16 17 17 16 16 16 17 17 18 20 21 21 21 22 24 24 22 20 19 19 18 18 17 17 16 16 16 16 15 15 16 15 15 15 13 11 11 11 11 12 11 11 12 13 13 14 16 17 17 19 20 21 22 21 20 20 20 20 22 22 19 15 12 11 10 9 8 8 9 10
16 17 17 17 17 17 18 19 16 14 13 12 12 14 15 16 17 17 17 16 16 18 19 19 19 20 20 20 19 19 20 20 20 20 20 20 20 19 19 19 18 16 15 15 15 15 13 12 11 10 8 9 10 10 11 11 11 13 15 16 16 16 17 18 20 21 21 22 22 22 21 20 20 20 17 15 14 13 11 10 8 6 7 9 10
18 18 18 18 18 19 20 19 17 15 14 13 14 15 15 16 17 17 17 17 17 18 18 18 18 19 20 21 21 19 19 18 19 21 23 23 23 22 22 21 19 18 17 16 14 13 12 13 12 10 9 8 9 10 11 12 14 17 20 20 18 17 17 19 22 21 19 19 18 18 18 17 17 17 14 12 12 11 10 9 7 5 6 9 9
20 19 19 19 19 20 20 19 17 16 15 15 15 16 17 17 17 18 18 18 18 19 19 18 17 17 18 19 20 21 21 21 22 23 24 24 25 25 24 22 21 20 20 19 17 15 13 13 12 9 9 10 11 13 15 18 20 23 24 23 21 19 19 21 23 22 18 17 16 16 16 15 15 14 12 9 7 6 7 8 7 5 5 7 8
21 21 21 20 20 20 20 19 18 17 17 17 18 18 19 18 18 18 18 18 18 19 18 17 16 16 17 18 18 19 20 21 22 23 24 25 26 26 25 24 22 21 22 23 21 18 15 15 15 15 16 17 17 19 22 24 26 27 27 25 22 21 21 22 22 20 18 16 15 16 16 14 12 10 8 5 3 5 7 8 8 7 6 7 7
21 22 23 23 23 22 21 21 20 19 19 19 19 20 20 19 19 19 18 18 18 18 17 16 15 16 17 17 18 19 19 19 19 21 23 24 26 27 27 26 24 22 22 23 23 21 20 21 21 22 22 23 23 24 25 26 27 27 24 21 20 20 20 20 17 15 15 15 15 16 16 13 8 6 5 4 5 5 6 6 7 6 6 7 7
22 23 24 24 24 24 23 23 22 22 21 20 21 21 21 20 20 20 19 19 19 18 16 16 16 16 16 16 16 16 16 16 17 18 20 21 24 26 27 27 25 23 22 23 23 23 24 24 25 25 25 26 27 26 25 25 26 26 24 21 19 20 20 19 16 14 15 16 16 15 15 11 7 5 6 6 6 6 6 7 7 7 7 6 4
22 25 26 27 25 23 23 23 22 22 22 22 22 21 21 21 21 20 19 19 18 18 17 16 16 15 15 15 15 16 15 15 15 15 16 18 22 25 28 28 26 24 24 25 24 25 25 25 25 26 26 27 27 26 25 25 27 29 28 25 22 22 23 21 19 16 14 14 15 16 14 11 8 7 7 7 7 7 7 7 7 8 9 7 5
22 25 25 25 24 23 22 22 22 23 23 23 23 22 22 22 22 21 21 20 19 18 17 16 16 15 14 14 14 14 14 13 10 8 9 13 19 23 25 28 28 27 26 25 25 25 26 25 25 25 25 26 26 26 25 26 28 29 28 25 22 20 19 18 18 17 14 11 13 16 15 11 9 7 7 7 8 9 10 9 7 8 9 9 7
20 21 20 20 21 21 20 19 20 22 23 23 23 23 23 22 22 22 22 22 22 20 19 17 16 15 14 14 12 11 11 9 6 4 3 6 12 16 18 22 26 27 27 25 25 23 22 21 21 22 22 23 23 23 24 24 26 26 26 24 22 18 16 17 17 15 11 9 11 14 14 12 10 9 8 8 7 7 9 10 8 7 9 10 10
17 17 18 19 19 19 18 18 19 20 21 22 23 23 23 23 23 22 20 19 19 20 20 19 18 17 18 19 18 16 14 12 10 9 7 6 9 12 14 16 19 21 21 20 21 20 18 18 19 19 19 20 20 20 20 21 22 20 18 17 20 21 19 19 16 11 9 9 12 13 13 12 12 11 10 9 8 7 8 9 8 7 8 10 9
17 16 16 17 18 18 18 18 18 18 19 19 20 20 21 21 21 22 23 23 21 20 21 21 19 17 18 20 22 22 21 19 19 18 16 14 14 14 14 14 15 17 17 16 17 18 18 18 19 20 20 20 20 20 20 20 21 18 15 13 16 20 22 19 13 10 10 10 12 13 13 13 14 13 12 12 11 10 8 8 7 7 8 8 10
16 15 15 15 15 15 16 16 17 18 19 20 20 19 16 16 17 21 26 28 27 25 25 24 21 19 19 20 21 21 21 21 21 20 19 18 17 16 15 15 15 16 16 16 16 18 19 19 19 20 20 20 20 20 19 19 19 17 14 13 13 14 16 15 11 9 9 10 10 11 12 13 15 15 14 13 12 9 7 7 7 7 7 6 11
14 14 14 14 14 15 16 17 18 18 19 20 20 19 16 15 16 18 21 24 26 26 25 24 22 20 20 20 19 19 20 20 20 19 18 17 17 17 17 17 16 16 16 15 16 18 19 18 19 19 20 20 20 20 19 20 20 17 14 14 16 16 15 13 10 9 9 9 9 10 12 14 15 15 14 12 10 8 7 9 10 7 5 5 11
12 13 14 15 16 17 18 19 19 20 21 22 21 19 18 18 17 14 13 15 19 23 25 26 25 24 23 23 21 19 19 20 20 19 18 17 17 17 18 19 19 19 18 18 18 18 18 18 18 18 19 19 19 19 19 19 18 17 16 16 16 16 15 13 11 10 9 8 9 11 13 14 14 14 13 11 9 9 10 11 11 8 6 8 10
11 13 14 16 17 18 17 17 18 18 20 22 22 20 19 20 18 16 14 13 16 19 23 25 25 24 25 25 23 20 20 19 19 19 19 18 18 18 18 19 20 19 20 20 21 21 21 20 20 19 19 19 19 20 19 18 17 18 18 16 15 15 15 13 12 10 8 8 10 12 13 13 13 12 9 7 7 9 10 9 10 10 11 13 13
12 14 15 16 17 17 16 17 19 20 21 23 25 24 22 20 19 18 18 16 15 15 17 20 20 19 20 21 22 22 21 20 19 20 19 18 18 19 19 20 19 19 19 21 23 24 25 24 23 21 20 19 19 19 18 17 18 18 16 13 12 13 14 15 15 13 11 10 10 10 9 9 11 11 9 7 7 9 11 11 12 12 13 15 15
14 15 17 18 20 20 19 18 18 19 21 24 27 26 22 20 18 17 15 14 14 16 18 18 15 10 10 15 19 21 23 23 22 21 20 19 20 21 22 22 20 17 17 19 20 21 23 24 24 24 22 20 20 19 18 17 18 17 15 13 11 11 13 16 15 13 13 11 9 9 8 10 11 12 12 13 13 12 13 12 11 10 10 12 14
16 17 18 20 21 21 19 17 17 19 20 22 24 24 21 17 16 16 16 17 18 17 15 12 8 5 9 14 17 20 23 24 22 21 21 21 22 23 24 25 23 21 21 21 20 18 19 20 21 21 21 19 20 19 18 16 16 15 15 15 14 14 17 18 15 12 12 9 10 11 12 13 14 12 13 15 15 13 10 8 6 6 7 10 13
16 17 17 18 19 20 19 20 21 22 21 20 20 22 20 16 15 17 17 18 17 13 8 6 8 10 13 17 18 18 21 21 21 22 23 24 25 26 26 25 24 24 24 24 22 21 20 18 17 16 16 16 16 16 15 14 14 14 14 15 15 16 18 19 16 14 13 11 12 14 16 17 17 15 14 16 15 12 9 8 7 6 6 10 14
14 15 18 21 23 23 24 24 24 23 22 20 19 19 19 16 15 16 15 14 14 12 9 10 13 14 16 19 18 14 17 20 21 23 23 22 23 25 26 25 25 25 26 26 25 22 19 16 15 15 16 15 15 15 13 11 12 13 15 16 16 18 19 19 16 15 15 15 14 15 18 20 19 16 16 18 17 13 11 10 10 8 7 9 14
13 16 20 23 24 24 24 24 23 23 22 21 19 19 19 17 15 16 16 16 16 15 16 19 20 19 20 22 19 13 14 18 21 21 22 22 21 21 20 20 21 23 25 26 23 19 15 14 14 14 14 14 14 13 12 12 14 16 16 15 16 19 20 18 16 16 17 20 20 19 20 22 20 17 17 19 17 14 12 10 9 10 9 8 11
15 17 20 22 23 23 23 23 23 24 23 20 18 18 20 19 16 15 15 18 20 21 22 23 22 20 20 22 20 15 13 15 16 16 18 20 21 21 19 17 18 20 21 20 17 14 13 13 13 12 13 14 13 12 13 16 19 19 16 14 14 16 15 14 15 16 15 16 18 20 23 24 22 19 18 17 16 14 13 11 10 11 11 11 12
16 19 22 23 23 23 23 24 24 23 22 19 18 18 19 19 18 16 16 19 22 23 23 22 20 18 19 20 20 18 15 15 16 17 16 17 18 18 17 17 19 20 18 15 13 12 12 12 12 12 13 13 13 13 14 15 15 14 12 12 14 16 14 13 15 17 16 13 11 13 19 24 23 20 18 16 14 13 13 13 12 12 12 14 15
19 21 23 23 23 23 22 23 22 21 21 21 20 20 19 19 19 17 16 18 21 22 22 19 18 17 18 17 17 17 17 17 17 16 15 14 15 18 20 21 23 22 18 14 11 10 11 11 11 12 13 12 11 11 12 13 12 11 12 12 15 18 18 17 16 16 17 16 13 11 17 23 23 21 18 15 14 13 13 14 15 14 13 15 15
22 23 22 22 22 22 22 22 21 19 20 22 21 19 19 19 19 17 16 17 19 19 19 18 16 16 15 16 16 16 17 17 15 12 11 12 15 19 21 23 24 25 21 14 9 8 10 11 12 13 13 12 11 10 11 12 12 13 13 13 15 17 17 17 16 15 16 16 17 16 20 22 21 20 18 15 14 15 16 16 17 17 16 15 13
22 21 21 21 21 22 22 21 19 18 19 20 20 21 21 17 15 14 15 16 17 15 14 15 17 17 16 17 19 19 19 20 19 17 16 17 19 21 22 23 23 21 18 13 8 8 9 11 12 12 12 11 11 12 12 11 13 14 14 14 16 17 15 13 13 13 14 13 13 15 21 24 22 20 19 17 16 17 18 16 16 18 18 16 14
19 19 20 21 21 22 21 20 19 19 19 19 20 20 19 16 13 13 14 15 15 15 12 12 15 18 19 19 21 21 22 23 23 23 23 23 24 24 24 22 20 18 17 14 12 10 10 11 11 12 12 12 12 13 12 12 13 14 14 14 17 19 18 15 13 12 14 14 11 10 17 24 23 20 20 20 19 19 20 18 16 17 19 17 14
18 20 20 20 21 20 19 20 20 20 19 19 19 19 18 18 18 18 15 14 15 16 15 14 15 18 21 23 25 26 26 26 26 25 24 23 23 23 22 19 18 17 16 16 14 13 12 11 12 12 13 12 12 12 13 13 14 15 14 14 15 16 17 18 17 15 16 18 17 13 13 19 21 19 20 22 22 21 21 20 18 18 20 20 17
19 20 20 20 21 20 18 19 20 21 21 20 18 18 18 18 17 16 16 17 17 17 17 16 17 18 21 23 25 27 27 27 26 24 22 20 18 18 19 19 18 17 16 13 12 11 10 10 11 11 11 11 11 11 12 14 14 15 15 14 14 14 14 16 18 17 16 17 17 16 14 17 19 19 19 21 22 21 22 22 20 19 21 22 20
19 20 20 20 20 19 19 20 20 20 21 21 20 19 19 17 15 16 18 19 18 17 18 18 18 17 18 18 20 21 23 24 24 23 21 18 17 17 18 18 18 17 16 12 10 10 10 10 12 13 11 10 9 9 10 11 13 13 14 14 15 15 15 14 15 17 17 16 16 16 15 16 18 21 21 21 21 21 22 22 21 20 21 22 21
20 19 19 18 19 20 21 21 20 21 21 21 20 20 21 19 16 15 16 16 17 18 18 17 17 18 18 17 16 15 16 19 21 21 21 20 19 18 17 15 14 15 13 10 9 8 9 11 14 14 13 12 10 9 8 8 8 10 12 14 15 16 17 16 16 17 17 18 19 18 16 15 16 20 23 23 21 20 21 22 22 21 22 22 21
Wind_Direction
259 266 263 259 254 252 254 252 250 249 246 247 246 243 240 233 228 226 226 232 242 270 280 278 303 340 325 317 318 314 314 308 292 287 304 307 300 291 289 298 306 310 315 317 315 314 315 319 318 314 315 320 326 330 326 323 320 311 309 312 307 302 301 298 295 304 307 310 312 312 309 284 248 260 276 267 257 253 247 243 239 240 242 242 244
252 254 257 260 262 260 259 258 255 253 252 250 247 243 242 239 231 223 225 230 233 250 277 298 317 303 275 293 307 302 305 310 310 314 311 305 301 296 290 289 297 306 311 311 312 313 314 316 314 314 318 318 318 325 325 320 315 306 299 297 298 298 300 302 304 304 304 309 314 316 315 306 278 268 270 264 260 256 253 252 244 237 242 244 244
256 260 258 253 253 256 258 257 257 257 255 253 250 245 242 240 232 224 224 231 234 238 262 290 296 283 276 292 298 289 284 302 311 307 306 310 314 314 309 299 294 302 307 308 312 315 315 314 314 315 318 320 322 326 322 315 313 312 312 308 298 293 295 300 304 303 300 306 311 312 313 313 308 299 284 266 262 252 244 253 255 246 246 246 243
255 260 258 252 246 249 252 253 255 257 256 254 251 245 239 235 232 226 223 230 236 235 248 260 269 288 289 283 284 279 272 300 308 306 315 323 319 317 317 315 309 307 305 305 308 311 312 312 315 315 314 317 322 322 320 323 326 327 329 331 324 318 320 323 320 312 301 300 305 307 308 308 306 304 297 284 279 265 237 242 259 260 255 252 247
251 255 261 267 264 260 260 259 257 257 258 256 252 245 239 238 234 227 223 233 238 236 249 265 277 279 271 272 285 288 288 281 279 289 307 320 322 321 321 320 315 305 296 293 294 298 302 306 311 313 310 312 316 319 327 337 336 333 332 333 332 330 330 329 324 318 311 303 303 304 305 303 300 300 298 290 290 283 252 239 249 255 259 261 259
250 263 274 275 278 282 279 270 264 264 263 261 257 251 246 242 230 221 225 235 240 234 244 268 278 269 269 273 280 297 314 306 281 270 279 306 322 320 320 319 315 307 296 290 291 293 296 299 303 304 302 306 314 325 340 341 334 331 329 328 329 330 330 330 328 325 320 312 306 304 303 303 303 304 303 298 299 303 296 276 249 244 256 263 261
261 273 274 267 268 283 284 276 269 270 270 265 262 256 248 240 227 229 235 235 240 238 237 251 257 259 271 282 282 294 317 320 307 293 246 238 282 299 318 318 311 310 307 300 297 294 293 298 301 299 297 302 310 321 331 330 325 325 323 321 324 328 329 329 328 326 325 322 316 311 307 307 308 308 309 314 314 309 309 307 281 253 250 251 253
260 263 267 266 264 273 280 280 275 273 271 264 258 254 252 248 238 238 239 233 237 242 244 255 260 258 259 260 264 274 286 298 299 291 270 263 276 291 318 319 306 306 308 302 297 293 293 300 303 300 296 296 302 310 316 315 313 314 317 316 318 324 327 325 322 322 322 322 319 316 314 315 317 320 327 338 343 332 318 306 293 284 272 253 252
244 261 269 266 257 256 261 259 255 259 260 256 254 251 252 253 247 243 242 240 243 246 250 258 265 270 272 263 249 249 260 272 278 278 279 281 274 281 310 320 307 301 303 302 299 297 296 296 297 296 295 296 301 306 310 308 302 301 307 310 309 313 317 317 317 316 315 316 316 317 320 320 324 333 340 344 345 334 323 313 301 299 297 282 270
230 248 268 273 263 252 245 237 237 247 247 247 250 251 249 247 246 246 250 255 254 250 251 255 260 271 281 282 276 266 264 266 266 270 278 279 270 276 303 316 303 295 303 304 297 292 291 290 292 293 295 302 307 308 310 309 304 298 299 307 309 307 307 308 311 314 313 312 312 316 320 319 324 334 337 338 339 334 327 320 312 311 312 303 292
227 230 254 270 267 260 249 233 232 236 234 234 238 241 242 239 236 237 243 251 257 258 259 262 264 265 264 272 282 284 276 271 271 275 278 274 270 278 297 310 301 289 294 296 294 294 295 295 299 302 304 307 308 309 310 311 311 306 305 316 315 304 298 296 297 302 306 307 309 314 315 312 318 327 333 338 341 339 337 329 322 326 330 322 308
240 259 265 266 263 263 260 251 244 236 229 230 231 233 235 235 235 235 235 238 241 245 251 258 265 268 266 269 277 281 280 276 271 272 273 269 270 280 293 305 298 283 285 292 295 300 305 306 306 306 305 305 306 310 312 315 326 333 332 331 323 310 302 295 289 288 290 295 301 304 302 304 310 319 328 335 336 337 340 337 335 338 335 326 319
241 257 260 261 258 255 256 257 260 258 249 241 235 235 240 246 248 247 246 246 241 239 241 246 253 259 262 268 275 282 287 283 273 268 268 268 273 283 293 301 291 277 283 290 289 289 293 299 303 300 298 299 302 304 306 314 327 333 331 328 322 315 311 304 295 289 283 282 286 287 291 297 300 305 314 324 330 336 337 329 326 325 320 313 309
240 241 244 252 259 261 260 257 257 264 266 258 246 245 249 253 255 256 256 256 255 254 252 249 249 250 253 260 267 275 283 285 281 273 268 272 281 285 290 294 283 274 281 286 284 283 280 279 286 291 292 293 291 289 298 307 314 319 321 319 315 310 306 305 306 302 288 278 278 282 288 291 291 294 300 305 313 322 321 315 313 311 305 300 297
244 243 241 242 249 258 262 260 256 260 266 266 258 254 253 251 248 248 251 251 253 256 257 256 254 253 253 253 254 257 265 272 274 270 269 275 281 280 283 286 280 276 279 280 284 286 281 274 277 280 279 280 283 290 298 302 306 312 316 316 314 307 298 297 301 303 299 289 282 284 290 292 291 292 294 294 296 300 302 298 298 302 301 298 296
249 250 247 243 242 242 248 255 255 252 256 260 257 253 251 249 244 242 245 247 246 248 251 254 255 255 254 252 248 249 255 260 264 266 269 272 272 270 275 281 280 276 273 273 280 287 287 281 275 273 271 274 283 290 290 289 298 311 316 315 315 309 299 295 294 298 302 296 284 283 290 295 297 299 300 297 292 292 295 294 294 298 296 293 293
253 254 253 250 248 245 244 245 245 243 244 250 254 253 251 250 246 242 240 240 240 242 246 248 249 251 254 253 251 252 253 254 259 264 265 263 261 263 269 274 274 271 271 273 276 284 292 289 279 272 273 274 275 275 274 279 301 316 317 314 312 307 303 299 295 298 303 296 281 282 295 304 309 310 309 305 296 289 290 290 290 300 298 288 294
251 253 254 253 253 251 246 242 244 248 250 257 267 270 265 262 260 254 246 243 242 242 243 245 247 252 254 251 250 253 252 252 255 258 257 254 255 259 262 264 267 268 271 276 276 278 288 292 288 281 271 263 259 259 263 284 306 315 316 313 308 304 302 302 299 299 303 299 290 294 303 307 309 307 306 306 296 281 278 281 283 294 295 281 286
256 259 262 264 265 265 266 266 267 268 270 275 283 287 284 278 273 267 259 255 254 254 255 255 253 254 254 252 251 250 248 247 248 250 252 252 253 255 255 256 262 266 270 277 281 280 281 286 290 286 269 250 245 256 270 289 305 313 318 314 307 302 301 300 300 302 303 300 296 296 298 299 301 301 300 296 284 267 265 278 279 275 272 273 283
256 260 263 265 265 265 267 265 258 249 244 251 261 268 272 273 273 270 265 262 262 263 264 261 255 252 253 255 255 251 244 241 244 247 249 249 250 250 250 251 254 260 269 277 280 283 286 289 296 298 278 253 251 261 271 285 301 313 317 310 300 299 301 299 298 300 301 297 294 293 293 294 297 297 290 281 272 261 256 264 267 262 259 265 277
255 256 258 260 260 260 259 258 252 240 233 236 246 254 259 262 264 265 264 261 259 258 260 262 262 262 265 268 269 259 245 239 242 246 246 247 247 246 246 249 249 252 264 274 277 284 296 305 306 302 285 264 260 266 276 292 306 310 309 305 298 298 299 297 296 297 297 295 294 291 290 289 290 288 279 269 268 262 250 245 249 259 264 264 274
251 252 253 255 256 257 256 253 250 243 236 234 241 249 252 254 256 259 260 261 259 258 258 259 260 262 264 266 268 265 258 251 251 252 250 248 246 243 243 250 252 248 251 263 273 280 292 302 300 288 272 269 275 282 291 300 304 303 303 303 300 295 293 293 295 297 295 293 291 289 286 282 280 282 280 270 259 248 240 236 233 252 274 269 272
249 251 253 252 253 256 257 253 247 242 237 233 236 243 249 251 252 254 257 259 259 259 258 257 258 261 262 261 261 261 260 257 253 252 251 248 245 242 242 248 251 247 244 249 257 264 275 289 294 286 279 285 290 295 300 301 299 299 301 301 299 295 290 291 294 293 288 286 286 284 283 281 279 283 287 278 252 224 219 219 211 222 256 257 257
249 252 255 255 254 254 256 256 251 244 239 235 234 236 241 244 246 250 254 257 258 258 257 255 254 256 259 260 260 259 259 256 251 249 250 250 246 242 242 245 248 246 243 244 248 253 259 269 280 285 288 290 292 296 299 298 296 296 296 296 296 292 287 287 290 290 283 279 278 276 278 281 283 285 286 276 240 205 200 203 207 220 242 252 264
250 253 253 252 251 250 250 252 251 248 243 237 232 231 234 238 242 245 247 250 252 254 255 254 253 253 255 257 258 258 257 253 249 249 252 252 247 242 242 245 245 244 243 244 247 249 251 257 267 274 279 282 286 290 292 293 293 293 292 291 288 282 278 280 285 283 276 274 273 273 278 284 288 292 286 263 247 241 229 217 213 222 240 256 272
254 259 258 253 249 246 243 244 247 249 246 240 234 231 230 232 235 238 240 241 242 244 247 249 250 253 256 258 262 265 263 258 255 254 252 250 247 242 242 244 243 242 243 245 248 251 254 259 264 269 274 277 280 282 284 286 289 287 284 279 274 272 272 273 271 266 266 273 277 278 282 285 280 279 279 267 257 254 244 229 216 211 215 218 227
249 258 262 259 253 245 239 238 242 247 246 240 234 233 232 232 232 232 234 236 238 238 238 242 246 249 254 260 267 270 271 270 266 259 251 246 244 241 238 238 239 239 241 244 247 251 254 259 264 270 274 276 275 274 274 278 282 281 275 268 264 267 271 270 264 258 261 273 281 282 282 278 267 265 272 269 257 243 233 233 230 216 203 188 176
248 254 261 261 256 247 241 238 239 244 244 239 233 231 231 232 233 232 232 234 236 236 234 236 238 240 246 256 264 270 275 275 269 262 256 246 240 237 236 236 237 238 240 244 248 252 256 261 266 270 272 271 269 266 266 272 278 279 274 265 258 258 260 257 255 257 262 273 281 281 277 267 255 255 261 259 252 239 227 228 229 213 200 190 178
257 258 266 271 267 257 247 242 244 247 246 241 237 236 236 235 234 234 234 235 235 236 238 237 234 234 241 251 262 274 282 277 257 247 263 240 229 229 233 237 241 242 246 249 250 251 253 256 259 261 262 260 258 255 258 265 270 273 271 261 247 239 237 236 240 253 269 278 275 276 275 265 254 254 257 256 259 249 228 225 228 218 205 201 188
270 264 267 272 273 268 258 252 255 258 255 246 239 236 238 241 242 241 240 240 239 239 240 239 236 236 241 247 253 259 263 260 255 260 267 253 235 229 230 233 235 236 241 246 244 241 242 246 250 255 258 259 258 258 261 265 268 273 276 257 231 222 224 230 237 259 286 284 268 263 264 261 257 257 252 246 252 254 237 230 229 220 216 212 188
274 269 266 267 270 269 263 259 260 264 266 263 253 243 236 237 244 247 245 244 246 248 248 247 245 243 246 250 252 253 252 251 255 261 264 264 262 256 250 245 236 230 233 238 236 234 238 244 248 254 258 260 262 262 264 267 270 277 284 267 235 221 220 227 242 268 280 275 263 256 256 258 257 253 246 238 240 246 251 248 236 230 240 224 179
278 277 274 273 277 280 276 273 272 269 267 267 265 259 244 229 234 243 241 237 240 246 248 249 249 247 247 249 251 251 251 251 253 259 261 263 267 268 265 262 255 248 246 246 241 239 241 244 249 256 258 259 261 262 265 271 273 272 273 273 266 250 238 239 252 258 252 252 253 250 252 253 249 248 250 241 225 218 232 240 232 240 256 219 172
293 298 298 297 300 302 300 298 295 290 285 277 266 259 252 240 237 240 236 232 236 240 241 242 244 245 244 245 247 249 252 253 253 256 259 261 264 265 265 265 266 264 262 257 251 249 250 249 252 257 257 257 260 261 263 267 271 270 265 265 270 274 271 264 255 238 227 231 241 242 241 241 242 248 253 241 215 207 225 229 228 245 259 190 167
312 313 312 309 305 298 293 290 288 289 292 290 276 259 252 251 248 242 230 223 229 236 238 238 241 243 244 244 245 246 249 252 253 254 257 259 261 263 265 267 267 265 264 260 254 252 252 252 253 255 256 257 259 261 262 264 268 268 262 257 262 272 276 266 248 230 215 216 233 240 238 240 246 250 244 229 216 219 225 224 225 232 217 183 178
329 317 309 305 300 293 288 291 295 293 293 295 290 274 260 253 247 241 235 220 212 220 231 235 239 243 244 244 245 246 246 248 250 251 252 254 255 256 257 259 260 262 262 261 256 252 250 250 250 251 254 256 258 260 261 264 267 267 262 256 258 269 275 271 259 246 226 217 231 241 243 246 252 248 233 218 219 221 219 221 223 213 195 189 196
324 315 309 307 306 304 301 303 307 307 305 306 303 291 272 255 238 232 233 227 213 213 228 238 244 247 244 242 245 247 247 246 247 247 246 246 248 250 249 249 252 255 256 257 257 254 252 251 250 249 250 253 257 260 261 260 263 265 262 255 253 261 271 277 270 250 226 218 232 245 246 246 249 244 227 218 235 239 231 228 224 214 199 193 195
318 313 310 310 312 313 309 302 300 301 304 307 306 297 278 254 233 225 228 230 226 224 228 231 234 239 243 246 248 247 244 242 242 242 240 240 243 246 247 246 247 250 252 253 253 251 248 248 248 245 243 245 249 253 255 256 258 259 254 250 250 254 262 269 262 234 211 211 226 230 219 221 239 244 230 222 235 248 242 231 225 221 209 193 184
319 309 305 308 312 313 311 307 304 302 300 298 299 296 285 260 234 227 229 230 228 227 225 226 238 267 279 276 268 251 238 234 234 234 235 237 241 245 247 248 247 249 252 255 257 256 253 251 248 243 240 242 244 245 244 245 248 250 247 249 258 263 262 260 248 217 198 204 220 218 210 212 224 229 222 222 236 249 249 242 234 218 200 185 181
310 306 311 322 326 323 317 311 305 300 294 290 290 291 284 265 241 237 238 230 222 219 224 248 262 262 268 275 273 250 230 225 227 229 232 237 242 247 250 250 249 250 251 254 256 256 254 254 257 257 256 257 258 257 253 247 247 250 250 253 263 267 261 252 237 210 192 197 214 217 213 211 214 214 214 223 235 241 239 242 243 228 198 185 186
315 320 329 333 329 321 314 307 299 293 288 287 289 289 284 267 247 240 237 225 214 210 211 223 233 241 253 264 266 248 227 225 229 230 231 238 247 251 253 251 249 250 252 253 253 253 254 257 263 267 268 266 263 260 255 248 249 252 250 251 260 262 255 249 243 225 209 211 222 224 216 212 212 213 215 219 223 226 226 231 232 229 220 202 195
336 334 332 326 318 311 306 301 297 294 290 286 285 286 285 275 252 234 224 219 216 212 209 215 224 234 245 252 256 252 237 233 235 234 233 238 245 249 251 250 250 251 252 251 251 257 267 271 269 268 269 269 265 258 250 247 249 251 247 248 259 261 250 243 248 247 231 223 227 231 223 214 212 214 213 209 206 207 214 222 222 222 232 232 213
342 335 326 318 312 308 304 301 299 296 292 286 281 282 284 277 260 240 227 222 218 212 210 219 231 236 237 240 246 249 241 236 239 246 251 256 260 258 254 254 257 258 258 258 261 269 276 277 275 274 271 269 266 262 257 251 247 247 247 251 262 267 258 243 248 259 249 231 229 232 226 217 210 206 203 198 194 200 210 216 216 220 228 232 231
336 329 320 311 306 303 301 300 299 296 294 292 287 283 282 276 266 252 237 225 220 216 217 226 235 234 231 236 243 247 245 245 254 265 276 288 293 292 288 284 278 272 267 266 271 276 276 274 275 274 269 268 268 267 266 260 249 246 251 253 253 261 266 259 252 254 253 250 248 234 216 207 201 197 197 199 201 208 215 216 215 218 221 226 240
332 323 315 307 302 300 299 298 298 300 304 304 297 287 280 273 265 256 242 231 230 231 230 232 233 229 230 238 246 249 251 254 260 267 272 280 291 301 307 308 304 298 289 277 272 276 279 277 276 273 268 268 269 267 268 268 260 253 257 258 252 252 257 260 256 247 241 245 251 226 195 190 191 192 195 201 205 207 210 215 216 216 215 225 242
328 318 310 304 301 300 299 298 299 303 307 308 303 295 285 271 257 250 246 244 244 242 237 234 232 230 233 239 245 249 250 247 244 248 258 269 279 288 296 305 310 308 300 287 275 276 278 275 274 273 268 264 264 265 265 264 259 255 256 257 255 253 254 257 258 247 234 237 242 224 198 190 193 196 197 200 203 205 209 216 218 214 212 222 233
321 312 306 303 302 300 298 299 303 307 308 308 305 301 296 283 261 249 251 255 256 251 240 232 231 234 238 242 245 247 244 238 235 238 249 263 274 281 289 301 307 301 289 281 277 278 278 276 275 274 270 266 267 268 267 263 262 263 261 253 251 255 260 264 262 247 234 240 250 229 206 200 200 200 199 201 204 204 207 215 218 209 204 213 221
312 308 306 302 301 301 300 304 307 307 305 305 303 301 300 296 287 279 275 271 265 258 245 233 234 238 241 242 243 244 243 243 245 246 247 251 258 264 273 286 291 283 273 273 272 265 262 266 270 273 276 276 272 269 268 267 266 268 267 258 253 256 261 266 269 257 241 245 262 248 213 206 204 200 198 201 205 204 204 211 215 205 197 202 208
308 309 308 305 305 306 309 312 311 307 303 301 300 300 297 291 286 284 281 271 261 253 244 238 239 242 243 244 245 246 247 249 250 248 246 246 247 247 249 257 268 273 273 272 268 260 256 259 262 261 262 266 267 266 267 267 265 265 267 265 261 259 256 255 259 259 248 247 259 263 229 209 206 205 202 202 204 205 204 208 212 207 200 200 202
310 312 310 308 308 309 310 312 311 309 307 304 302 301 295 285 277 272 267 261 256 250 244 242 244 245 248 251 251 250 250 248 244 242 241 239 233 226 223 225 238 256 265 264 261 262 267 275 281 277 268 264 263 262 261 263 264 265 265 263 262 261 253 245 244 245 242 243 253 259 242 215 207 207 208 209 209 206 205 207 212 208 199 197 201
313 314 311 311 313 314 314 312 309 308 309 309 309 307 301 289 272 260 258 259 257 251 247 250 254 255 255 256 253 250 249 245 238 232 229 222 212 206 206 211 225 245 254 252 252 261 271 282 295 302 300 291 284 279 271 264 260 260 260 259 260 262 257 246 240 240 239 240 246 252 250 234 217 206 204 208 211 209 206 208 210 206 196 194 197
311 311 311 315 319 318 316 315 314 311 310 309 309 310 309 303 291 274 267 271 273 267 260 260 262 262 260 259 256 250 245 239 229 221 217 214 206 201 203 212 229 241 243 238 245 264 280 286 288 293 299 300 302 307 300 275 251 245 248 250 252 256 257 256 254 253 251 249 247 243 244 248 239 220 206 202 204 208 211 211 212 209 202 197 196